Location: North Evanston
(42.0634°N, 87.6976°W)
Time: 20:43:08
(UTC+00:00)

Injun/Solrad 3 - Pass Details

Date: 17 May 2026
Orbit: 867 x 989 km, 66.8° (Epoch: 6 June)

Event Time Altitude Azimuth Distance (km) Brightness Sun altitude
Rises 21:01:37 0° 215° (SW) 3,503 11.4 43.3°
Reaches altitude 10° 21:04:05 10° 217° (SW) 2,583 11.0 42.9°
Maximum altitude 21:10:04 72° 302° (WNW) 976 9.1 41.8°
Drops below altitude 10° 21:16:20 10° 27° (NNE) 2,684 10.1 40.7°
Sets 21:18:56 0° 30° (NNE) 3,650 10.7 40.2°
